| time (UTC) | temp F | wind direction | speed MPH | gust MPH | rain 1hr in | rain 24hr in | rain mn in | humidity % | barometer mb |
| 20260507163729 | 85 | 0.0 | 0.0 | 0.00 | 0.00 | 2.80 | 1011.7 | ||
| 20260507161728 | 70 | 0.0 | 0.0 | 0.00 | 0.00 | 2.80 | 1012.3 | ||
| 20260507154115 | 74 | 0.0 | 0.0 | 0.00 | 0.00 | 0.00 | 1012.9 | ||
| 20260507152115 | 73 | 0.0 | 0.0 | 0.00 | 0.00 | 2.80 | 1013.3 | ||
| 20260507150115 | 73 | 0.0 | 0.0 | 0.00 | 0.00 | 2.80 | 1013.3 | ||
| 20260507144114 | 73 | 0.0 | 0.0 | 0.00 | 0.00 | 2.80 | 1013.3 | ||
| 20260507142114 | 73 | 0.0 | 0.0 | 0.00 | 0.00 | 2.80 | 1013.3 | ||
| 20260507140114 | 73 | 0.0 | 0.0 | 0.00 | 0.00 | 2.80 | 1013.2 | ||
| 20260507134113 | 73 | 0.0 | 0.0 | 0.00 | 0.00 | 2.80 | 1013.6 | ||
| 20260507132113 | 72 | 0.0 | 0.0 | 0.00 | 0.00 | 2.80 | 1013.1 | ||
| 20260507130113 | 73 | 0.0 | 0.0 | 0.00 | 0.00 | 2.80 | 1013.7 | ||
| 20260507124112 | 75 | 0.0 | 0.0 | 0.00 | 0.00 | 2.80 | 1013.8 | ||
| 20260507123316 | 78 | 0.0 | 0.0 | 0.00 | 0.00 | 2.80 | 1013.1 | ||
| 20260507123015 | 78 | 0.0 | 0.0 | 0.00 | 0.00 | 2.80 | 1013.1 | ||
| 20260507121319 | 74 | 0.0 | 0.0 | 0.00 | 0.00 | 2.80 | 1013.8 | ||
| 20260507120246 | 73 | 0.0 | 0.0 | 0.00 | 0.00 | 2.80 | 1014.0 | ||
| 20260507115555 | 73 | 0.0 | 0.0 | 0.00 | 0.00 | 2.80 | 1014.1 | ||
| 20260507113555 | 73 | 0.0 | 0.0 | 0.00 | 0.00 | 2.80 | 1014.1 | ||
| 20260507111554 | 73 | 0.0 | 0.0 | 0.00 | 0.00 | 2.80 | 1014.2 | ||
| 20260507111139 | 73 | 0.0 | 0.0 | 0.00 | 0.00 | 2.80 | 1014.2 | ||
| 20260507110803 | 74 | 0.0 | 0.0 | 0.00 | 0.00 | 2.80 | 1014.3 | ||
| 20260507103655 | 79 | 0.0 | 0.0 | 0.00 | 0.00 | 2.80 | 1013.7 | ||
| 20260507102844 | 80 | 0.0 | 0.0 | 0.00 | 0.00 | 2.80 | 1014.4 | ||
| 20260507102505 | 75 | 0.0 | 0.0 | 0.00 | 0.00 | 2.80 | 1014.6 | ||
| 20260507102041 | 75 | 0.0 | 0.0 | 0.00 | 0.00 | 2.80 | 1014.6 | ||
| 20260507095124 | 85 | 0.0 | 0.0 | 0.00 | 0.00 | 2.80 | 1013.7 | ||
| 20260507095015 | 85 | 0.0 | 0.0 | 0.00 | 0.00 | 2.80 | 1013.6 | ||
| 20260507094921 | 85 | 0.0 | 0.0 | 0.00 | 0.00 | 2.80 | 1013.6 | ||
| 20260507094832 | 84 | 0.0 | 0.0 | 0.00 | 0.00 | 2.80 | 1013.6 | ||
| 20260507094619 | 84 | 0.0 | 0.0 | 0.00 | 0.00 | 2.80 | 1013.6 | ||
| 20260507081518 | 80 | 0.0 | 0.0 | 0.00 | 0.00 | 2.80 | 1013.7 | ||
| 20260507080714 | 84 | 0.0 | 0.0 | 0.00 | 0.00 | 2.80 | 1013.6 | ||
| 20260507080449 | 85 | 0.0 | 0.0 | 0.00 | 0.00 | 2.80 | 1013.5 | ||
| 20260507080341 | 85 | 0.0 | 0.0 | 0.00 | 0.00 | 2.80 | 1013.6 | ||
| 20260507080213 | 85 | 0.0 | 0.0 | 0.00 | 0.00 | 2.80 | 1013.6 | ||
| 20260507080124 | 85 | 0.0 | 0.0 | 0.00 | 0.00 | 2.80 | 1013.6 | ||
| 20260507080036 | 84 | 0.0 | 0.0 | 0.00 | 0.00 | 2.80 | 1013.6 | ||
| 20260507075946 | 84 | 0.0 | 0.0 | 0.00 | 0.00 | 2.80 | 1013.6 | ||
| 20260507075857 | 84 | 0.0 | 0.0 | 0.00 | 0.00 | 2.80 | 1013.6 | ||
| 20260507075749 | 84 | 0.0 | 0.0 | 0.00 | 0.00 | 2.80 | 1013.6 | ||
| 20260507075630 | 84 | 0.0 | 0.0 | 0.00 | 0.00 | 2.80 | 1013.6 | ||
| 20260507073630 | 81 | 0.0 | 0.0 | 0.00 | 0.00 | 2.80 | 1013.9 | ||
| 20260507073535 | 81 | 0.0 | 0.0 | 0.00 | 0.00 | 2.80 | 1013.9 | ||
| 20260507071534 | 79 | 0.0 | 0.0 | 0.00 | 0.00 | 2.80 | 1014.3 | ||
| 20260507065534 | 77 | 0.0 | 0.0 | 0.00 | 0.00 | 2.80 | 1014.2 | ||
| 20260507064814 | 77 | 0.0 | 0.0 | 0.00 | 0.00 | 0.00 | 1014.1 | ||
| 20260507062814 | 75 | 0.0 | 0.0 | 0.00 | 0.00 | 0.00 | 1013.9 | ||
| 20260507060814 | 75 | 0.0 | 0.0 | 0.00 | 0.00 | 0.00 | 1013.6 | ||
| 20260507054814 | 74 | 0.0 | 0.0 | 0.00 | 0.00 | 0.00 | 1013.5 | ||
| 20260507052813 | 73 | 0.0 | 0.0 | 0.00 | 0.00 | 0.00 | 1013.5 | ||
| 20260507050813 | 71 | 0.0 | 0.0 | 0.00 | 0.00 | 0.00 | 1013.3 | ||
| 20260507044813 | 70 | 0.0 | 0.0 | 0.00 | 0.00 | 0.00 | 1013.3 | ||
| 20260507042812 | 68 | 0.0 | 0.0 | 0.00 | 0.00 | 0.00 | 1013.3 | ||
| 20260507040813 | 68 | 0.0 | 0.0 | 0.00 | 0.00 | 0.00 | 1013.2 | ||
| 20260507034812 | 67 | 0.0 | 0.0 | 0.00 | 0.00 | 0.00 | 1013.0 | ||
| 20260507032811 | 68 | 0.0 | 0.0 | 0.00 | 0.00 | 0.00 | 1013.4 | ||
| 20260507030811 | 69 | 0.0 | 0.0 | 0.00 | 0.00 | 0.00 | 1013.3 | ||
| 20260507024811 | 68 | 0.0 | 0.0 | 0.00 | 0.00 | 0.00 | 1013.5 | ||
| 20260507022810 | 69 | 0.0 | 0.0 | 0.00 | 0.00 | 0.00 | 1013.5 | ||
| 20260507020810 | 69 | 0.0 | 0.0 | 0.00 | 0.00 | 0.00 | 1013.5 | ||
| 20260507014810 | 70 | 0.0 | 0.0 | 0.00 | 0.00 | 0.00 | 1013.5 | ||
| 20260507010806 | 71 | 0.0 | 0.0 | 0.00 | 0.00 | 0.00 | 1013.5 | ||
| 20260507004806 | 71 | 0.0 | 0.0 | 0.00 | 0.00 | 0.00 | 1013.7 | ||
| 20260507002805 | 70 | 0.0 | 0.0 | 0.00 | 0.00 | 0.00 | 1013.6 | ||
| 20260507000806 | 70 | 0.0 | 0.0 | 0.00 | 0.00 | 0.00 | 1013.7 | ||
| 20260506234805 | 70 | 0.0 | 0.0 | 0.00 | 0.00 | 0.00 | 1014.0 | ||
| 20260506232804 | 70 | 0.0 | 0.0 | 0.00 | 0.00 | 0.00 | 1014.2 | ||
| 20260506230804 | 71 | 0.0 | 0.0 | 0.00 | 0.00 | 0.00 | 1014.4 | ||
| 20260506224804 | 71 | 0.0 | 0.0 | 0.00 | 0.00 | 0.00 | 1014.4 | ||
| 20260506222803 | 71 | 0.0 | 0.0 | 0.00 | 0.00 | 0.00 | 1014.3 | ||
| 20260506220803 | 72 | 0.0 | 0.0 | 0.00 | 0.00 | 0.00 | 1014.4 | ||
| 20260506214803 | 72 | 0.0 | 0.0 | 0.00 | 0.00 | 0.00 | 1014.4 | ||
| 20260506212803 | 72 | 0.0 | 0.0 | 0.00 | 0.00 | 0.00 | 1014.5 | ||
| 20260506210802 | 70 | 0.0 | 0.0 | 0.00 | 0.00 | 0.00 | 1013.7 | ||
| 20260506204802 | 71 | 0.0 | 0.0 | 0.00 | 0.00 | 0.00 | 1014.3 | ||
| 20260506202802 | 72 | 0.0 | 0.0 | 0.00 | 0.00 | 0.00 | 1013.8 | ||
| 20260506200801 | 72 | 0.0 | 0.0 | 0.00 | 0.00 | 0.00 | 1013.5 | ||
| 20260506194801 | 71 | 0.0 | 0.0 | 0.00 | 0.00 | 0.00 | 1013.2 | ||
| 20260506192801 | 72 | 0.0 | 0.0 | 0.00 | 0.00 | 0.00 | 1013.9 | ||
| 20260506190800 | 72 | 0.0 | 0.0 | 0.00 | 0.00 | 0.00 | 1014.0 | ||
| 20260506184800 | 72 | 0.0 | 0.0 | 0.00 | 0.00 | 0.00 | 1014.1 | ||
| 20260506182800 | 73 | 0.0 | 0.0 | 0.00 | 0.00 | 0.00 | 1013.9 | ||
| 20260506180759 | 73 | 0.0 | 0.0 | 0.00 | 0.00 | 0.00 | 1012.8 | ||
| 20260506174759 | 75 | 0.0 | 0.0 | 0.00 | 0.00 | 0.00 | 1013.3 | ||
| 20260506170759 | 76 | 0.0 | 0.0 | 0.00 | 0.00 | 0.00 | 1013.0 | ||
| 20260506164758 | 78 | 0.0 | 0.0 | 0.00 | 0.00 | 0.00 | 1012.8 |